Regional Weather Roundup
Issued by NWS Newport/Morehead, NC

Current Version | Previous Version | Text Only | Print | Product List | Glossary Off
Versions: 1 2 3 4 5 6 7 8 9 10 11 12 13 14 15 16 17 18 19 20 21 22 23 24 25 26 27 28 29 30 31 32 33 34 35 36 37 38 39 40 41 42 43 44 45 46 47 48 49 50

000
ASUS42 KMHX 070512
RWRMHX
WEATHER ROUNDUP FOR EASTERN NORTH CAROLINA
NATIONAL WEATHER SERVICE NEWPORT/MOREHEAD CITY NC
100 AM EDT THU MAY 07 2015

NOTE: "FAIR" INDICATES FEW OR NO CLOUDS BELOW 12,000 FEET
WITH NO SIGNIFICANT WEATHER AND/OR OBSTRUCTIONS TO VISIBILITY

NCZ015>017-031-032-045>047-102-103-070600-
NORTH COAST

CITY           SKY/WX    TMP DP  RH WIND       PRES   REMARKS
EDENTON        CLOUDY    61  58  91 CALM      30.17F
ELIZABETH CITY CLOUDY    63  59  87 E6        30.18S
KITTY HAWK     CLOUDY    62  60  96 E5        30.16S
MANTEO         CLOUDY    64  62  91 E9        30.17S

$$

NCZ045>047-081-094-103-104-070600-
CENTRAL COAST

CITY           SKY/WX    TMP DP  RH WIND       PRES   REMARKS
FRISCO         CLOUDY    64  56  75 E5        30.15S
SWANQUARTER      N/A     64 N/A N/A E3        30.12S

$$

NCZ095-097-098-100-101-070600-
SOUTHERN COAST

CITY           SKY/WX    TMP DP  RH WIND       PRES   REMARKS
BEAUFORT       CLOUDY    65  60  84 N7        30.12S
CEDAR ISLAND     N/A     68 N/A N/A NE7       30.18S
JACKSONVILLE   CLOUDY    64  59  83 NE8       30.13S
PINEY ISLAND   CLOUDY   N/A N/A N/A NE10      30.13S
WILMINGTON     CLOUDY    64  59  83 NE12      30.11S


$$

NCZ011>013-027>030-043-044-078>080-089-090>093-098-070600-
COASTAL PLAIN

CITY           SKY/WX    TMP DP  RH WIND       PRES   REMARKS
AHOSKIE        CLOUDY    58  57  96 CALM      30.17F
CLINTON        CLOUDY    62  58  88 CALM      30.15F
ELIZABETHTOWN  CLOUDY    61  58  88 CALM      30.14S
GOLDSBORO      CLOUDY    61  56  86 CALM      30.14S
GREENVILLE     CLOUDY    59  57  94 CALM      30.17S
HAVELOCK       CLOUDY    66  60  81 NE8       30.14F
KENANSVILLE    CLOUDY    59  56  90 CALM      30.15F
KINSTON        CLOUDY    61  57  88 N3        30.16F
NEW BERN       CLOUDY    65  59  81 NE7       30.15F
RICHLANDS      CLOUDY    61  55  82 NE7       30.15S
ROCKY MOUNT    CLOUDY    58  56  93 CALM      30.16F
WASHINGTON     CLOUDY    60  57  89 N3        30.17R
WHITEVILLE     CLOUDY    63  57  81 N3        30.12S

$$

AMZ130-135-150-152-154-156-158-170-250-252-270-ANZ085-086-088-633-658-670-070600-
MARINE OBSERVATIONS

STATION/POSITION TIME  TEMP    WIND        PRES    WAVE   SWELL
                       AIR SEA DIR/SP/G            HT/PER HT/PER
                 (UTC) (F)     (DEG/KT/KT) (MB)    (FT/S) (FT/S)
CHESAPEAKE LIGHT 0500   63     120/ 12/ 13 1022.5
64 E VA BEACH    0450   63 60   50/  6/  6 1021.7    2/ 8   2/ 8
DUCK             0400           80/ 12/ 12   N/A
2 E DUCK         0411      56                N/A     2/11
OREGON INLET     0400   64 71   40/  7/ 10 1021.3
13E OREGON INLT  0500      63                N/A     4/ 6   2/11
HATTERAS CG      0400   67 69   70/  4/  5 1020.4
DIAMOND BUOY     0450   72 75  100/ 14/ 17 1020.2    6/ 6   3/ 7
CAPE LOOKOUT     0500   69      80/ 12/ 13 1019.4
BEAUFORT LAB     0400   68 67   60/  4/  5 1019.2
27 SE WRIGHTSVLE 0400   67 71   80/ 16/ 19   N/A
5 SE WRIGHTSVLE  NOT AVBL
225 S CAPE HAT   0450   70 72  110/ 17/ 21 1015.7    7/ 8
41 SE CHARLESTON 0450   70 74   20/ 23/ 27 1015.7   10/ 9   7/ 9

$$



USA.gov is the U.S. government's official web portal to all federal, state and local government web resources and services.